[[{"header":{"parameterUnit":"m.s-1","parameterCategory":1,"la1":30.2991,"la2":30.254,"lo1":-89.0895,"lo2":-89.0444,"dy":0.0017,"dx":0.0017,"nx":28,"ny":28,"refTime":"2025-07-15T09:00:00:Z","depth":0,"parameterNumber":2,"parameterNumberName":"U-component_of_WINDS"},"data":[0,0,0,0,0,0,0,0,0,0,0,0,0,0,0,0,0,0,0,0,0,0,0,0,0,0,0,0,0,0,0,0,0,0,0,0,0,0,0,0,0,0,0,0,0,0,0,0,0,0,0,0,0,0,0,0,0,0,1.8398,1.8399,0,1.8425,1.8425,1.8425,1.8328,1.8325,1.8322,1.8319,1.8356,1.836,1.8363,0,0,0,0,0,0,0,0,0,0,0,0,0,1.8274,1.8277,1.8398,1.8399,1.8399,1.8425,1.8425,1.8425,1.8329,1.8325,1.8321,1.8318,1.8355,1.8359,1.8364,0,0,0,0,0,0,0,0,0,0,0,0,0,1.8317,1.8278,1.8398,1.8354,1.835,1.8425,1.8425,1.8426,1.8329,1.8325,1.832,1.8316,1.8353,1.8359,1.8364,1.8487,0,0,1.8381,1.8384,0,0,0,0,0,0,0,0,1.8315,1.8322,1.836,1.8357,1.8353,1.8368,1.8395,1.8446,1.833,1.8337,1.8319,1.8314,1.8364,1.8369,1.8384,1.8488,1.849,1.8382,1.8385,1.8388,1.8389,0,0,0,0,0,0,0,1.8312,1.832,1.8409,1.8361,1.8356,1.8335,1.8337,1.8404,1.8376,1.8336,1.8329,1.8333,1.8362,1.8379,1.8384,1.849,1.8382,1.8387,1.839,1.8392,1.87,1.8705,0,0,0,0,0,0,1.8314,1.8319,1.8408,1.841,1.8322,1.8341,1.8343,1.8368,1.8374,1.8371,1.8337,1.8329,1.8371,1.8377,1.8385,1.8531,1.8387,1.8393,1.8396,1.8696,1.8702,1.8707,0,0,0,0,0,0,1.8311,1.8323,1.8407,1.8362,1.8371,1.8348,1.8377,1.8371,1.8387,1.8375,1.837,1.8359,1.8368,1.8377,1.8462,1.8531,1.8395,1.84,1.869,1.8697,1.8704,1.8824,0,0,0,0,0,0,1.8308,1.8322,1.8366,1.8364,1.8374,1.8482,1.8381,1.8375,1.8396,1.8386,1.8394,1.8391,1.8365,1.8454,1.8468,1.8536,1.8405,1.8684,1.8693,1.8702,1.8813,1.8834,1.8852,0,0,0,0,0,1.8304,1.84,1.8369,1.838,1.8428,1.8486,1.8492,1.8457,1.8402,1.8448,1.844,1.8391,1.852,1.8464,1.8478,1.8549,1.8679,1.8691,1.8701,1.8805,1.883,1.8851,0,0,0,0,0,0,1.8414,1.8399,1.8364,1.8462,1.8475,1.8469,1.8526,1.8484,1.8516,1.8505,1.8463,1.8466,1.856,1.8563,1.85,1.867,1.8591,1.8605,1.8665,1.8689,1.8707,1.8707,1.8409,0,0,0,0,0,1.8449,1.8494,1.8479,1.8567,1.8575,1.855,1.8573,1.8545,1.8559,1.8565,1.8563,1.8582,1.8626,1.8657,1.8697,1.8812,1.8815,1.8868,1.8888,1.8903,1.8918,1.8982,1.9007,1.8743,1.8743,1.8742,0,0,1.8524,1.8521,1.8552,1.8589,1.8596,1.8648,1.8555,1.8613,1.8651,1.8575,1.8655,1.8655,1.8672,1.8774,1.8818,1.8779,1.8991,1.8917,1.893,1.8936,1.8996,1.9021,1.9043,1.875,1.8749,1.8748,0,0,1.8686,1.8686,1.876,1.8769,1.878,1.8762,1.878,1.878,1.8776,1.8855,1.88,1.8847,1.8924,1.894,1.8958,1.9126,1.9085,1.9141,1.9242,1.9306,1.9327,1.9345,1.9409,1.9432,1.9154,1.9154,1.9155,0,1.8778,1.8849,1.8805,1.8866,1.8886,1.8815,1.8893,1.8904,1.893,1.8947,1.8901,1.8998,1.9004,1.911,1.9152,1.9167,1.919,1.9141,1.9326,1.9344,1.9361,1.9422,1.9446,1.9161,1.9161,1.916,1.9159,0,1.8963,1.9014,1.9073,1.9097,1.9123,1.9192,1.9162,1.9194,1.9164,1.9152,1.9236,1.9241,1.9283,1.9305,1.9276,1.9408,1.9383,1.9333,1.9254,1.9394,1.9451,1.9473,1.9172,1.9169,1.9167,1.9165,0,0,1.9198,1.9195,1.9218,1.9229,1.9236,1.9276,1.9344,1.9381,1.9412,1.9432,1.949,1.9557,1.9511,1.9532,1.9504,1.956,1.9698,1.9502,1.9502,1.9542,1.9848,1.9889,1.9916,1.9668,1.9672,1.9676,1.9848,0,1.9359,1.9471,1.9434,1.955,1.9599,1.9533,1.9592,1.9605,1.9596,1.9639,1.9629,1.9679,1.9611,1.9624,1.9675,1.967,1.9759,1.9656,1.9727,1.973,1.9729,1.9945,1.9988,2.0151,1.9869,1.9873,1.9876,0,1.9563,1.9589,1.9709,1.971,1.9729,1.9783,1.9816,1.9855,1.987,1.986,1.9883,1.9845,1.9915,1.9833,1.9932,1.9863,1.9889,1.9891,1.9897,1.9905,1.9814,1.9964,2.0201,2.0227,1.9909,1.9907,1.9904,0,1.9728,1.9792,1.9873,1.9884,1.9885,1.9925,1.9929,1.9938,1.9964,1.9994,2.0011,2.0049,2.0072,2.0104,2.0079,2.002,2.0184,2.0098,2.0181,2.0183,2.0222,2.0221,2.0471,2.0232,2.0232,2.0232,2.0231,0,1.9914,1.9992,1.9946,1.9997,2.0083,2.004,2.0127,2.0123,2.0133,2.0184,2.0129,2.0179,2.014,2.0188,2.0169,2.0257,2.0266,2.0263,2.0258,2.027,2.0272,2.029,2.028,2.0238,2.0237,2.0235,2.0234,0,2.0114,2.0086,2.017,2.0164,2.0165,2.0229,2.0225,2.0274,2.026,2.0326,2.0339,2.0319,2.0373,2.0349,2.0406,2.0393,2.0507,2.0485,2.0502,2.0497,2.0584,2.0578,2.0859,2.0895,2.0629,2.0631,2.0633,0,2.0237,2.0294,2.0294,2.0323,2.0329,2.0376,2.0402,2.0363,2.0392,2.0414,2.0461,2.0509,2.0546,2.0635,2.0629,2.0673,2.0654,2.0749,2.0661,2.0673,2.0661,2.066,2.0667,2.0769,2.0772,2.0774,2.0776,0,2.046,2.0443,2.048,2.0514,2.0545,2.057,2.0591,2.0618,2.058,2.0617,2.0669,2.0698,2.0755,2.0806,2.0845,2.0852,2.0811,2.0803,2.0826,2.0842,2.0851,2.0852,2.0555,2.0798,2.0796,2.0795,2.0793,2.0793,2.0628,2.0677,2.0685,2.0729,2.0739,2.076,2.0806,2.0797,2.0839,2.0881,2.0855,2.0919,2.0935,2.0982,2.0996,2.1047,2.101,2.1042,2.1051,2.106,2.1073,2.0839,2.1054,2.1053,2.1052,2.1052,2.1051,0,2.0852,2.0853,2.0893,2.0923,2.0959,2.0911,2.0932,2.0967,2.1021,2.1038,2.1074,2.1137,2.1186,2.1182,2.1228,2.127,2.1253,2.1284,2.1283,2.1287,2.1101,2.1079,2.1298,2.1298,2.1298,2.1298,2.1298,2.1298,2.0973,2.1054,2.1039,2.1127,2.1128,2.1187,2.1204,2.1224,2.1237,2.1308,2.1347,2.1343,2.1353,2.1399,2.1443,2.1441,2.1463,2.1503,2.1495,2.1323,2.1299,2.1276,2.1255,2.1507,2.1507,2.1676,2.1677,2.1679]},{"header":{"parameterUnit":"m.s-1","parameterCategory":1,"la1":30.2991,"la2":30.254,"lo1":-89.0895,"lo2":-89.0444,"dy":0.0017,"dx":0.0017,"nx":28,"ny":28,"refTime":"2025-07-15T09:00:00:Z","depth":0,"parameterNumber":3,"parameterNumberName":"V-component_of_WINDS"},"data":[0,0,0,0,0,0,0,0,0,0,0,0,0,0,0,0,0,0,0,0,0,0,0,0,0,0,0,0,0,0,0,0,0,0,0,0,0,0,0,0,0,0,0,0,0,0,0,0,0,0,0,0,0,0,0,0,0,0,-1.8981,-1.8981,0,-1.8999,-1.8999,-1.8999,-1.9,-1.9,-1.9,-1.9,-1.9016,-1.9017,-1.9017,0,0,0,0,0,0,0,0,0,0,0,0,0,-1.8948,-1.8948,-1.8981,-1.8981,-1.8982,-1.8999,-1.8999,-1.8999,-1.9,-1.9,-1.9,-1.9,-1.9016,-1.9017,-1.9017,0,0,0,0,0,0,0,0,0,0,0,0,0,-1.8963,-1.8948,-1.8981,-1.8984,-1.8985,-1.8999,-1.8999,-1.8999,-1.9,-1.9,-1.9,-1.8999,-1.9016,-1.9017,-1.9018,-1.9029,0,0,-1.902,-1.9021,0,0,0,0,0,0,0,0,-1.8962,-1.8965,-1.8984,-1.8984,-1.8985,-1.8997,-1.8993,-1.9009,-1.9,-1.8994,-1.9,-1.8999,-1.901,-1.9011,-1.9015,-1.903,-1.9031,-1.902,-1.9021,-1.9021,-1.9022,0,0,0,0,0,0,0,-1.8961,-1.8964,-1.8988,-1.8984,-1.8985,-1.8984,-1.8986,-1.8996,-1.9003,-1.8995,-1.8995,-1.8997,-1.901,-1.9014,-1.9016,-1.9031,-1.902,-1.9021,-1.9022,-1.9022,-1.9056,-1.9056,0,0,0,0,0,0,-1.896,-1.8963,-1.8988,-1.8989,-1.8973,-1.8985,-1.8987,-1.8993,-1.9003,-1.9005,-1.8997,-1.8997,-1.9013,-1.9015,-1.9016,-1.903,-1.9021,-1.9022,-1.9023,-1.9056,-1.9056,-1.9056,0,0,0,0,0,0,-1.8959,-1.8962,-1.8987,-1.8976,-1.8979,-1.8986,-1.8993,-1.8994,-1.8998,-1.9005,-1.9007,-1.9,-1.9013,-1.9015,-1.9026,-1.9031,-1.9023,-1.9024,-1.9055,-1.9056,-1.9056,-1.9059,0,0,0,0,0,0,-1.8958,-1.8962,-1.8966,-1.8976,-1.898,-1.8997,-1.8993,-1.8994,-1.9,-1.9,-1.9008,-1.901,-1.9013,-1.9025,-1.9027,-1.9032,-1.9024,-1.9055,-1.9055,-1.9056,-1.9058,-1.9059,-1.906,0,0,0,0,0,-1.8957,-1.8966,-1.8967,-1.897,-1.8986,-1.8997,-1.8999,-1.9003,-1.9,-1.9005,-1.901,-1.9009,-1.903,-1.9026,-1.9028,-1.9034,-1.9054,-1.9055,-1.9056,-1.9058,-1.9059,-1.906,0,0,0,0,0,0,-1.8956,-1.8967,-1.8968,-1.8981,-1.8988,-1.8997,-1.9003,-1.9004,-1.9012,-1.9011,-1.9015,-1.9017,-1.9028,-1.9032,-1.9027,-1.9046,-1.9042,-1.9043,-1.9042,-1.9044,-1.9044,-1.9043,-1.9025,0,0,0,0,0,-1.8958,-1.8966,-1.8975,-1.8986,-1.8989,-1.8996,-1.9001,-1.9003,-1.901,-1.9013,-1.9019,-1.9026,-1.9034,-1.9039,-1.9047,-1.9059,-1.9061,-1.9064,-1.9065,-1.9066,-1.9066,-1.9073,-1.9075,-1.9059,-1.9059,-1.9059,0,0,-1.896,-1.8968,-1.8973,-1.8986,-1.8992,-1.9,-1.8998,-1.9007,-1.9013,-1.9014,-1.9025,-1.903,-1.9038,-1.9049,-1.9055,-1.9053,-1.9071,-1.9067,-1.9067,-1.9068,-1.9074,-1.9075,-1.9077,-1.9059,-1.9059,-1.9059,0,0,-1.897,-1.8976,-1.8985,-1.8992,-1.9001,-1.9005,-1.9007,-1.9016,-1.902,-1.9031,-1.9032,-1.9039,-1.9053,-1.9059,-1.9063,-1.9076,-1.9076,-1.9078,-1.9083,-1.9089,-1.909,-1.9091,-1.9095,-1.9097,-1.9079,-1.9079,-1.9079,0,-1.8972,-1.8985,-1.899,-1.8999,-1.9004,-1.9007,-1.9016,-1.9022,-1.9033,-1.9036,-1.9035,-1.9052,-1.9058,-1.9071,-1.9074,-1.9078,-1.908,-1.9077,-1.909,-1.9091,-1.9092,-1.9096,-1.9097,-1.9079,-1.9079,-1.9079,-1.9079,0,-1.8987,-1.8996,-1.9002,-1.9014,-1.902,-1.9029,-1.9035,-1.9041,-1.9043,-1.9047,-1.9059,-1.9065,-1.9075,-1.9078,-1.908,-1.9091,-1.909,-1.9089,-1.9085,-1.9094,-1.9097,-1.9099,-1.908,-1.908,-1.908,-1.908,0,0,-1.8995,-1.901,-1.9012,-1.9017,-1.9028,-1.9035,-1.9044,-1.9054,-1.9058,-1.9066,-1.9074,-1.9086,-1.9085,-1.9091,-1.9093,-1.9099,-1.9108,-1.9097,-1.9097,-1.9098,-1.912,-1.9121,-1.9122,-1.9108,-1.9109,-1.9109,-1.912,0,-1.9005,-1.9022,-1.9027,-1.9041,-1.905,-1.9052,-1.906,-1.9067,-1.9072,-1.908,-1.9084,-1.9093,-1.9091,-1.9095,-1.91,-1.9105,-1.9112,-1.9105,-1.9115,-1.9115,-1.9112,-1.9124,-1.9124,-1.9134,-1.9121,-1.9121,-1.9122,0,-1.9019,-1.9028,-1.9043,-1.9053,-1.9056,-1.9064,-1.9073,-1.908,-1.9089,-1.9091,-1.9098,-1.91,-1.911,-1.9106,-1.9119,-1.9114,-1.9118,-1.9122,-1.9122,-1.9122,-1.9118,-1.9124,-1.9138,-1.9139,-1.9124,-1.9124,-1.9124,0,-1.9023,-1.9039,-1.905,-1.9054,-1.9066,-1.9071,-1.9076,-1.9084,-1.909,-1.9098,-1.9102,-1.9111,-1.9115,-1.9122,-1.9127,-1.9124,-1.9139,-1.9136,-1.9141,-1.9141,-1.9144,-1.9143,-1.9157,-1.9148,-1.9148,-1.9148,-1.9148,0,-1.9033,-1.9042,-1.9052,-1.9058,-1.9068,-1.9074,-1.9084,-1.9089,-1.9096,-1.9104,-1.9107,-1.9114,-1.912,-1.9127,-1.9131,-1.9141,-1.9143,-1.9145,-1.9146,-1.9145,-1.9144,-1.9147,-1.9146,-1.9148,-1.9148,-1.9148,-1.9148,0,-1.9039,-1.9046,-1.9058,-1.9069,-1.9072,-1.9079,-1.9087,-1.9094,-1.9099,-1.9108,-1.9111,-1.9118,-1.9128,-1.9133,-1.9145,-1.9147,-1.9158,-1.9159,-1.9155,-1.9155,-1.916,-1.9159,-1.9175,-1.9178,-1.9167,-1.9167,-1.9168,0,-1.9045,-1.9052,-1.9064,-1.9069,-1.9075,-1.9084,-1.9089,-1.9095,-1.9101,-1.9112,-1.9117,-1.9126,-1.9134,-1.9149,-1.9155,-1.9164,-1.9164,-1.917,-1.9166,-1.9164,-1.9164,-1.9163,-1.9164,-1.917,-1.917,-1.917,-1.917,0,-1.9055,-1.9058,-1.9067,-1.9077,-1.9084,-1.9092,-1.91,-1.9104,-1.9111,-1.9118,-1.9127,-1.9134,-1.9146,-1.9155,-1.9164,-1.9169,-1.9171,-1.9171,-1.9173,-1.9171,-1.9169,-1.917,-1.9156,-1.9171,-1.9171,-1.9171,-1.9171,-1.9171,-1.906,-1.9067,-1.9076,-1.9086,-1.9093,-1.91,-1.9107,-1.9113,-1.9121,-1.9132,-1.9135,-1.9145,-1.9153,-1.9166,-1.9171,-1.9179,-1.9178,-1.9181,-1.9181,-1.9181,-1.9181,-1.9168,-1.9181,-1.9181,-1.9181,-1.9181,-1.9181,0,-1.907,-1.9076,-1.9085,-1.9096,-1.9104,-1.9106,-1.9114,-1.912,-1.9129,-1.9137,-1.9145,-1.9156,-1.9166,-1.9173,-1.9182,-1.9187,-1.9188,-1.9189,-1.9189,-1.919,-1.9182,-1.9179,-1.9188,-1.9188,-1.9188,-1.9188,-1.9188,-1.9188,-1.9075,-1.9086,-1.9091,-1.9105,-1.9111,-1.9121,-1.9126,-1.9133,-1.914,-1.9152,-1.916,-1.9165,-1.9172,-1.9183,-1.9191,-1.9193,-1.9196,-1.9197,-1.9199,-1.9191,-1.919,-1.9189,-1.9187,-1.9198,-1.9198,-1.9206,-1.9206,-1.9206]}]]